Location: Unspecified
(41.5000°N, 0.0000°E)
Time: 01:06:19
(UTC+00:00)

deb Explorer IX - Pass Details

Date: 26 June 2019
Orbit: 544 x 1107 km, 38.8° (Epoch: 14 October)

Event Time Altitude Azimuth Distance (km) Brightness Sun altitude
Rises 17:05:31 0° 279° (W) 3,909 ? 25.7°
Reaches altitude 10° 17:08:30 10° 272° (W) 2,963 ? 25.1°
Maximum altitude 17:15:04 36° 209° (SSW) 1,642 ? 23.9°
Drops below altitude 10° 17:21:22 10° 145° (SE) 2,830 ? 22.7°
Sets 17:24:09 0° 137° (SE) 3,714 ? 22.2°
